World > North America > United States > Utah

Hourly Jensen, UT Regional Weather

Feedback E-mail the Weather

Quick WX

Jensen, UT Weather Maps

°F °C°F °C
Jensen Weather Map
UTC Time: 7/4/2022, 03:58
Your Time:

Jensen, UT Regional Weather

Expires:202207040400;;643616
ASUS45 KSLC 040310
RWRUT 

UTAH REGIONAL WEATHER ROUNDUP
NATIONAL WEATHER SERVICE SALT LAKE CITY UT
900 PM MDT SUN JUL 03 2022


UTZ024>027-106-112>120-040400-

CENTRAL/NORTHEAST UTAH
  
CITY           SKY/WX    TMP DP  RH WIND       PRES   REMARKS
PROVO AIRPORT  CLEAR     83  51  33 SW12      29.81R                  
MOAB/CANYONLAN CLEAR     87  45  23 SE10      29.85R                  
DELTA            N/A     82  27  13 SW13      29.84R                  
MANTI            N/A     77  35  21 S8        29.91R                  
PRICE          MOCLDY    82  31  15 N8        29.93R                  
DUCHESNE       PTCLDY    81  30  16 SW24G45   29.93R                  
VERNAL         MOCLDY    83  40  21 SW9       29.88S                  

$$


SKY/WX - Weather  TMP - Temperature  DP - Dew Point  RH - Humidity
WIND - Wind Direction/Speed PRES - Barometric Pressure VSB - Visibility
WCI - Wind Chill Index E13G22 Wind - East Wind 13 mph/Gusts of 22 mph

Trending Headlines

Jensen Radar Loop



Jensen Quick Facts


National Two Day Weather Forecast


E-mail the Jensen Weather Forecast

Voice your opinion or tell us about page issues...